Year,Month,Day,Hour,Minute,Value (Times are PST for temperature in C)
2014,06,16,00,00,10.50
2014,06,16,00,01,10.60
2014,06,16,00,02,10.60
2014,06,16,00,03,10.60
2014,06,16,00,04,10.60
2014,06,16,00,05,10.70
2014,06,16,00,06,10.70
2014,06,16,00,07,10.70
2014,06,16,00,08,10.60
2014,06,16,00,09,10.60
2014,06,16,00,10,10.60
2014,06,16,00,11,10.60
2014,06,16,00,12,10.60
2014,06,16,00,13,10.60
2014,06,16,00,14,10.70
2014,06,16,00,15,10.70
2014,06,16,00,16,10.70
2014,06,16,00,17,10.70
2014,06,16,00,18,10.70
2014,06,16,00,19,10.70
2014,06,16,00,20,10.70
2014,06,16,00,21,10.70
2014,06,16,00,22,10.70
2014,06,16,00,23,10.70
2014,06,16,00,24,10.70
2014,06,16,00,25,10.70
2014,06,16,00,26,10.70
2014,06,16,00,27,10.70
2014,06,16,00,28,10.70
2014,06,16,00,29,10.70
2014,06,16,00,30,10.70
2014,06,16,00,31,10.60
2014,06,16,00,32,10.60
2014,06,16,00,33,10.60
2014,06,16,00,34,10.60
2014,06,16,00,35,10.60
2014,06,16,00,36,10.60
2014,06,16,00,37,10.50
2014,06,16,00,38,10.50
2014,06,16,00,39,10.50
2014,06,16,00,40,10.40
2014,06,16,00,41,10.40
2014,06,16,00,42,10.40
2014,06,16,00,43,10.40
2014,06,16,00,44,10.40
2014,06,16,00,45,10.40
2014,06,16,00,46,10.40
2014,06,16,00,47,10.40
2014,06,16,00,48,10.40
2014,06,16,00,49,10.40
2014,06,16,00,50,10.40
2014,06,16,00,51,10.40
2014,06,16,00,52,10.40
2014,06,16,00,53,10.40
2014,06,16,00,54,10.40
2014,06,16,00,55,10.50
2014,06,16,00,56,10.50
2014,06,16,00,57,10.50
2014,06,16,00,58,10.50
2014,06,16,00,59,10.50
2014,06,16,01,00,10.50
2014,06,16,01,01,10.40
2014,06,16,01,02,10.40
2014,06,16,01,03,10.40
2014,06,16,01,04,10.30
2014,06,16,01,05,10.30
2014,06,16,01,06,10.30
2014,06,16,01,07,10.20
2014,06,16,01,08,10.20
2014,06,16,01,09,10.20
2014,06,16,01,10,10.10
2014,06,16,01,11,10.10
2014,06,16,01,12,10.10
2014,06,16,01,13,10.10
2014,06,16,01,14,10.10
2014,06,16,01,15,10.10
2014,06,16,01,16,10.10
2014,06,16,01,17,10.10
2014,06,16,01,18,10.10
2014,06,16,01,19,10.10
2014,06,16,01,20,10.10
2014,06,16,01,21,10.00
2014,06,16,01,22,10.00
2014,06,16,01,23,10.10
2014,06,16,01,24,10.10
2014,06,16,01,25,10.10
2014,06,16,01,26,10.10
2014,06,16,01,27,10.10
2014,06,16,01,28,10.10
2014,06,16,01,29,10.10
2014,06,16,01,30,10.10
2014,06,16,01,31,10.00
2014,06,16,01,32,10.00
2014,06,16,01,33,10.00
2014,06,16,01,34,10.00
2014,06,16,01,35,9.90
2014,06,16,01,36,9.90
2014,06,16,01,37,9.90
2014,06,16,01,38,9.80
2014,06,16,01,39,9.80
2014,06,16,01,40,9.80
2014,06,16,01,41,9.80
2014,06,16,01,42,9.80
2014,06,16,01,43,9.80
2014,06,16,01,44,9.80
2014,06,16,01,45,9.80
2014,06,16,01,46,9.80
2014,06,16,01,47,9.80
2014,06,16,01,48,9.80
2014,06,16,01,49,9.80
2014,06,16,01,50,9.80
2014,06,16,01,51,9.80
2014,06,16,01,52,9.80
2014,06,16,01,53,9.80
2014,06,16,01,54,9.80
2014,06,16,01,55,9.70
2014,06,16,01,56,9.80
2014,06,16,01,57,9.80
2014,06,16,01,58,9.80
2014,06,16,01,59,9.80
2014,06,16,02,00,9.80
2014,06,16,02,01,9.80
2014,06,16,02,02,9.80
2014,06,16,02,03,9.80
2014,06,16,02,04,9.80
2014,06,16,02,05,9.90
2014,06,16,02,06,9.90
2014,06,16,02,07,9.90
2014,06,16,02,08,9.90
2014,06,16,02,09,9.90
2014,06,16,02,10,9.90
2014,06,16,02,11,10.00
2014,06,16,02,12,10.10
2014,06,16,02,13,10.10
2014,06,16,02,14,10.10
2014,06,16,02,15,10.10
2014,06,16,02,16,10.10
2014,06,16,02,17,10.30
2014,06,16,02,18,10.30
2014,06,16,02,19,10.40
2014,06,16,02,20,10.40
2014,06,16,02,21,10.40
2014,06,16,02,22,10.50
2014,06,16,02,23,10.50
2014,06,16,02,24,10.60
2014,06,16,02,25,10.60
2014,06,16,02,26,10.60
2014,06,16,02,27,10.60
2014,06,16,02,28,10.60
2014,06,16,02,29,10.70
2014,06,16,02,30,10.70
2014,06,16,02,31,10.70
2014,06,16,02,32,10.70
2014,06,16,02,33,10.80
2014,06,16,02,34,10.80
2014,06,16,02,35,10.90
2014,06,16,02,36,10.90
2014,06,16,02,37,10.90
2014,06,16,02,38,10.90
2014,06,16,02,39,10.90
2014,06,16,02,40,10.90
2014,06,16,02,41,10.90
2014,06,16,02,42,10.90
2014,06,16,02,43,10.90
2014,06,16,02,44,10.90
2014,06,16,02,45,10.90
2014,06,16,02,46,10.90
2014,06,16,02,47,10.90
2014,06,16,02,48,10.90
2014,06,16,02,49,10.90
2014,06,16,02,50,10.90
2014,06,16,02,51,11.00
2014,06,16,02,52,11.00
2014,06,16,02,53,11.00
2014,06,16,02,54,11.00
2014,06,16,02,55,11.00
2014,06,16,02,56,11.00
2014,06,16,02,57,11.00
2014,06,16,02,58,11.00
2014,06,16,02,59,11.00
2014,06,16,03,00,11.00
2014,06,16,03,01,11.10
2014,06,16,03,02,11.10
2014,06,16,03,03,11.10
2014,06,16,03,04,11.10
2014,06,16,03,05,11.10
2014,06,16,03,06,11.10
2014,06,16,03,07,11.10
2014,06,16,03,08,11.10
2014,06,16,03,09,11.20
2014,06,16,03,10,11.10
2014,06,16,03,11,11.10
2014,06,16,03,12,11.10
2014,06,16,03,13,11.10
2014,06,16,03,14,11.10
2014,06,16,03,15,11.10
2014,06,16,03,16,11.10
2014,06,16,03,17,11.10
2014,06,16,03,18,11.10
2014,06,16,03,19,11.10
2014,06,16,03,20,11.10
2014,06,16,03,21,11.10
2014,06,16,03,22,11.10
2014,06,16,03,23,11.10
2014,06,16,03,24,11.10
2014,06,16,03,25,11.10
2014,06,16,03,26,11.10
2014,06,16,03,27,11.10
2014,06,16,03,28,11.10
2014,06,16,03,29,11.10
2014,06,16,03,30,11.10
2014,06,16,03,31,11.20
2014,06,16,03,32,11.20
2014,06,16,03,33,11.20
2014,06,16,03,34,11.20
2014,06,16,03,35,11.20
2014,06,16,03,36,11.20
2014,06,16,03,37,11.30
2014,06,16,03,38,11.30
2014,06,16,03,39,11.30
2014,06,16,03,40,11.30
2014,06,16,03,41,11.30
2014,06,16,03,42,11.30
2014,06,16,03,43,11.30
2014,06,16,03,44,11.30
2014,06,16,03,45,11.30
2014,06,16,03,46,11.30
2014,06,16,03,47,11.30
2014,06,16,03,48,11.30
2014,06,16,03,49,11.30
2014,06,16,03,50,11.30
2014,06,16,03,51,11.30
2014,06,16,03,52,11.30
2014,06,16,03,53,11.30
2014,06,16,03,54,11.30
2014,06,16,03,55,11.30
2014,06,16,03,56,11.30
2014,06,16,03,57,11.40
2014,06,16,03,58,11.30
2014,06,16,03,59,11.40
2014,06,16,04,00,11.40
2014,06,16,04,01,11.40
2014,06,16,04,02,11.40
2014,06,16,04,03,11.40
2014,06,16,04,04,11.40
2014,06,16,04,05,11.40
2014,06,16,04,06,11.40
2014,06,16,04,07,11.40
2014,06,16,04,08,11.40
2014,06,16,04,09,11.40
2014,06,16,04,10,11.40
2014,06,16,04,11,11.40
2014,06,16,04,12,11.40
2014,06,16,04,13,11.40
2014,06,16,04,14,11.40
2014,06,16,04,15,11.40
2014,06,16,04,16,11.40
2014,06,16,04,17,11.40
2014,06,16,04,18,11.40
2014,06,16,04,19,11.40
2014,06,16,04,20,11.40
2014,06,16,04,21,11.40
2014,06,16,04,22,11.40
2014,06,16,04,23,11.40
2014,06,16,04,24,11.30
2014,06,16,04,25,11.30
2014,06,16,04,26,11.30
2014,06,16,04,27,11.30
2014,06,16,04,28,11.30
2014,06,16,04,29,11.30
2014,06,16,04,30,11.30
2014,06,16,04,31,11.30
2014,06,16,04,32,11.30
2014,06,16,04,33,11.30
2014,06,16,04,34,11.30
2014,06,16,04,35,11.30
2014,06,16,04,36,11.30
2014,06,16,04,37,11.30
2014,06,16,04,38,11.30
2014,06,16,04,39,11.30
2014,06,16,04,40,11.30
2014,06,16,04,41,11.30
2014,06,16,04,42,11.30
2014,06,16,04,43,11.30
2014,06,16,04,44,11.30
2014,06,16,04,45,11.30
2014,06,16,04,46,11.30
2014,06,16,04,47,11.30
2014,06,16,04,48,11.30
2014,06,16,04,49,11.30
2014,06,16,04,50,11.30
2014,06,16,04,51,11.30
2014,06,16,04,52,11.40
2014,06,16,04,53,11.40
2014,06,16,04,54,11.30
2014,06,16,04,55,11.40
2014,06,16,04,56,11.40
2014,06,16,04,57,11.40
2014,06,16,04,58,11.40
2014,06,16,04,59,11.40
2014,06,16,05,00,11.30
2014,06,16,05,01,11.30
2014,06,16,05,02,11.30
2014,06,16,05,03,11.30
2014,06,16,05,04,11.30
2014,06,16,05,05,11.30
2014,06,16,05,06,11.30
2014,06,16,05,07,11.30
2014,06,16,05,08,11.30
2014,06,16,05,09,11.30
2014,06,16,05,10,11.30
2014,06,16,05,11,11.30
2014,06,16,05,12,11.30
2014,06,16,05,13,11.30
2014,06,16,05,14,11.30
2014,06,16,05,15,11.20
2014,06,16,05,16,11.20
2014,06,16,05,17,11.20
2014,06,16,05,18,11.20
2014,06,16,05,19,11.20
2014,06,16,05,20,11.20
2014,06,16,05,21,11.20
2014,06,16,05,22,11.20
2014,06,16,05,23,11.20
2014,06,16,05,24,11.20
2014,06,16,05,25,11.20
2014,06,16,05,26,11.10
2014,06,16,05,27,11.10
2014,06,16,05,28,11.10
2014,06,16,05,29,11.10
2014,06,16,05,30,11.10
2014,06,16,05,31,11.10
2014,06,16,05,32,11.10
2014,06,16,05,33,11.10
2014,06,16,05,34,11.10
2014,06,16,05,35,11.10
2014,06,16,05,36,11.10
2014,06,16,05,37,11.10
2014,06,16,05,38,11.10
2014,06,16,05,39,11.10
2014,06,16,05,40,11.10
2014,06,16,05,41,11.10
2014,06,16,05,42,11.10
2014,06,16,05,43,11.00
2014,06,16,05,44,11.00
2014,06,16,05,45,11.10
2014,06,16,05,46,11.00
2014,06,16,05,47,11.00
2014,06,16,05,48,11.00
2014,06,16,05,49,11.00
2014,06,16,05,50,11.00
2014,06,16,05,51,11.00
2014,06,16,05,52,11.00
2014,06,16,05,53,11.00
2014,06,16,05,54,11.10
2014,06,16,05,55,11.10
2014,06,16,05,56,11.10
2014,06,16,05,57,11.10
2014,06,16,05,58,11.10
2014,06,16,05,59,11.10
2014,06,16,06,00,11.10
2014,06,16,06,01,11.10
2014,06,16,06,02,11.10
2014,06,16,06,03,11.10
2014,06,16,06,04,11.10
2014,06,16,06,05,11.10
2014,06,16,06,06,11.10
2014,06,16,06,07,11.10
2014,06,16,06,08,11.10
2014,06,16,06,09,11.10
2014,06,16,06,10,11.10
2014,06,16,06,11,11.10
2014,06,16,06,12,11.10
2014,06,16,06,13,11.10
2014,06,16,06,14,11.10
2014,06,16,06,15,11.20
2014,06,16,06,16,11.20
2014,06,16,06,17,11.20
2014,06,16,06,18,11.20
2014,06,16,06,19,11.20
2014,06,16,06,20,11.20
2014,06,16,06,21,11.20
2014,06,16,06,22,11.20
2014,06,16,06,23,11.20
2014,06,16,06,24,11.30
2014,06,16,06,25,11.30
2014,06,16,06,26,11.30
2014,06,16,06,27,11.30
2014,06,16,06,28,11.30
2014,06,16,06,29,11.30
2014,06,16,06,30,11.30
2014,06,16,06,31,11.40
2014,06,16,06,32,11.40
2014,06,16,06,33,11.40
2014,06,16,06,34,11.40
2014,06,16,06,35,11.40
2014,06,16,06,36,11.40
2014,06,16,06,37,11.40
2014,06,16,06,38,11.40
2014,06,16,06,39,11.40
2014,06,16,06,40,11.40
2014,06,16,06,41,11.40
2014,06,16,06,42,11.40
2014,06,16,06,43,11.40
2014,06,16,06,44,11.40
2014,06,16,06,45,11.40
2014,06,16,06,46,11.40
2014,06,16,06,47,11.50
2014,06,16,06,48,11.50
2014,06,16,06,49,11.50
2014,06,16,06,50,11.50
2014,06,16,06,51,11.50
2014,06,16,06,52,11.50
2014,06,16,06,53,11.50
2014,06,16,06,54,11.60
2014,06,16,06,55,11.60
2014,06,16,06,56,11.60
2014,06,16,06,57,11.60
2014,06,16,06,58,11.70
2014,06,16,06,59,11.70
2014,06,16,07,00,11.70
2014,06,16,07,01,11.70
2014,06,16,07,02,11.70
2014,06,16,07,03,11.70
2014,06,16,07,04,11.70
2014,06,16,07,05,11.80
2014,06,16,07,06,11.80
2014,06,16,07,07,11.80
2014,06,16,07,08,11.90
2014,06,16,07,09,11.90
2014,06,16,07,10,11.90
2014,06,16,07,11,12.00
2014,06,16,07,12,12.00
2014,06,16,07,13,12.00
2014,06,16,07,14,12.10
2014,06,16,07,15,12.10
2014,06,16,07,16,12.10
2014,06,16,07,17,12.20
2014,06,16,07,18,12.20
2014,06,16,07,19,12.20
2014,06,16,07,20,12.20
2014,06,16,07,21,12.30
2014,06,16,07,22,12.30
2014,06,16,07,23,12.30
2014,06,16,07,24,12.30
2014,06,16,07,25,12.30
2014,06,16,07,26,12.40
2014,06,16,07,27,12.40
2014,06,16,07,28,12.40
2014,06,16,07,29,12.40
2014,06,16,07,30,12.40
2014,06,16,07,31,12.40
2014,06,16,07,32,12.50
2014,06,16,07,33,12.50
2014,06,16,07,34,12.60
2014,06,16,07,35,12.60
2014,06,16,07,36,12.60
2014,06,16,07,37,12.70
2014,06,16,07,38,12.70
2014,06,16,07,39,12.70
2014,06,16,07,40,12.70
2014,06,16,07,41,12.70
2014,06,16,07,42,12.80
2014,06,16,07,43,12.80
2014,06,16,07,44,12.80
2014,06,16,07,45,12.80
2014,06,16,07,46,12.80
2014,06,16,07,47,12.80
2014,06,16,07,48,12.80
2014,06,16,07,49,12.80
2014,06,16,07,50,12.80
2014,06,16,07,51,12.90
2014,06,16,07,52,12.90
2014,06,16,07,53,12.90
2014,06,16,07,54,12.90
2014,06,16,07,55,12.90
2014,06,16,07,56,13.00
2014,06,16,07,57,13.00
2014,06,16,07,58,13.00
2014,06,16,07,59,13.10
2014,06,16,08,00,13.10
2014,06,16,08,01,13.10
2014,06,16,08,02,13.20
2014,06,16,08,03,13.20
2014,06,16,08,04,13.30
2014,06,16,08,05,13.30
2014,06,16,08,06,13.30
2014,06,16,08,07,13.40
2014,06,16,08,08,13.40
2014,06,16,08,09,13.40
2014,06,16,08,10,13.40
2014,06,16,08,11,13.40
2014,06,16,08,12,13.40
2014,06,16,08,13,13.40
2014,06,16,08,14,13.40
2014,06,16,08,15,13.40
2014,06,16,08,16,13.40
2014,06,16,08,17,13.50
2014,06,16,08,18,13.50
2014,06,16,08,19,13.50
2014,06,16,08,20,13.50
2014,06,16,08,21,13.60
2014,06,16,08,22,13.60
2014,06,16,08,23,13.60
2014,06,16,08,24,13.60
2014,06,16,08,25,13.70
2014,06,16,08,26,13.70
2014,06,16,08,27,13.70
2014,06,16,08,28,13.80
2014,06,16,08,29,13.80
2014,06,16,08,30,13.90
2014,06,16,08,31,13.90
2014,06,16,08,32,14.00
2014,06,16,08,33,14.00
2014,06,16,08,34,14.10
2014,06,16,08,35,14.10
2014,06,16,08,36,14.10
2014,06,16,08,37,14.10
2014,06,16,08,38,14.20
2014,06,16,08,39,14.20
2014,06,16,08,40,14.20
2014,06,16,08,41,14.10
2014,06,16,08,42,14.20
2014,06,16,08,43,14.20
2014,06,16,08,44,14.30
2014,06,16,08,45,14.30
2014,06,16,08,46,14.30
2014,06,16,08,47,14.30
2014,06,16,08,48,14.30
2014,06,16,08,49,14.30
2014,06,16,08,50,14.30
2014,06,16,08,51,14.30
2014,06,16,08,52,14.30
2014,06,16,08,53,14.30
2014,06,16,08,54,14.20
2014,06,16,08,55,14.10
2014,06,16,08,56,14.10
2014,06,16,08,57,14.10
2014,06,16,08,58,14.10
2014,06,16,08,59,14.10
2014,06,16,09,00,14.10
2014,06,16,09,01,14.20
2014,06,16,09,02,14.20
2014,06,16,09,03,14.30
2014,06,16,09,04,14.30
2014,06,16,09,05,14.30
2014,06,16,09,06,14.30
2014,06,16,09,07,14.30
2014,06,16,09,08,14.20
2014,06,16,09,09,14.20
2014,06,16,09,10,14.30
2014,06,16,09,11,14.30
2014,06,16,09,12,14.30
2014,06,16,09,13,14.40
2014,06,16,09,14,14.50
2014,06,16,09,15,14.60
2014,06,16,09,16,14.70
2014,06,16,09,17,14.70
2014,06,16,09,18,14.70
2014,06,16,09,19,14.60
2014,06,16,09,20,14.60
2014,06,16,09,21,14.60
2014,06,16,09,22,14.50
2014,06,16,09,23,14.50
2014,06,16,09,24,14.60
2014,06,16,09,25,14.70
2014,06,16,09,26,14.70
2014,06,16,09,27,14.80
2014,06,16,09,28,14.90
2014,06,16,09,29,14.90
2014,06,16,09,30,15.00
2014,06,16,09,31,15.00
2014,06,16,09,32,15.10
2014,06,16,09,33,15.00
2014,06,16,09,34,14.90
2014,06,16,09,35,14.90
2014,06,16,09,36,14.90
2014,06,16,09,37,14.90
2014,06,16,09,38,14.90
2014,06,16,09,39,14.90
2014,06,16,09,40,14.80
2014,06,16,09,41,14.80
2014,06,16,09,42,14.70
2014,06,16,09,43,14.70
2014,06,16,09,44,14.70
2014,06,16,09,45,14.60
2014,06,16,09,46,14.60
2014,06,16,09,47,14.60
2014,06,16,09,48,14.60
2014,06,16,09,49,14.60
2014,06,16,09,50,14.70
2014,06,16,09,51,14.70
2014,06,16,09,52,14.80
2014,06,16,09,53,14.90
2014,06,16,09,54,14.90
2014,06,16,09,55,15.00
2014,06,16,09,56,15.10
2014,06,16,09,57,15.30
2014,06,16,09,58,15.40
2014,06,16,09,59,15.50
2014,06,16,10,00,15.60
2014,06,16,10,01,15.70
2014,06,16,10,02,15.80
2014,06,16,10,03,15.90
2014,06,16,10,04,16.00
2014,06,16,10,05,16.10
2014,06,16,10,06,16.20
2014,06,16,10,07,16.30
2014,06,16,10,08,16.50
2014,06,16,10,09,16.60
2014,06,16,10,10,16.60
2014,06,16,10,11,16.60
2014,06,16,10,12,16.60
2014,06,16,10,13,16.60
2014,06,16,10,14,16.60
2014,06,16,10,15,16.60
2014,06,16,10,16,16.60
2014,06,16,10,17,16.60
2014,06,16,10,18,16.70
2014,06,16,10,19,16.70
2014,06,16,10,20,16.70
2014,06,16,10,21,16.70
2014,06,16,10,22,16.70
2014,06,16,10,23,16.70
2014,06,16,10,24,16.70
2014,06,16,10,25,16.80
2014,06,16,10,26,16.80
2014,06,16,10,27,16.80
2014,06,16,10,28,16.80
2014,06,16,10,29,16.70
2014,06,16,10,30,16.70
2014,06,16,10,31,16.60
2014,06,16,10,32,16.60
2014,06,16,10,33,16.60
2014,06,16,10,34,16.60
2014,06,16,10,35,16.60
2014,06,16,10,36,16.60
2014,06,16,10,37,16.60
2014,06,16,10,38,16.60
2014,06,16,10,39,16.70
2014,06,16,10,40,16.80
2014,06,16,10,41,16.80
2014,06,16,10,42,16.80
2014,06,16,10,43,16.70
2014,06,16,10,44,16.70
2014,06,16,10,45,16.80
2014,06,16,10,46,16.80
2014,06,16,10,47,16.80
2014,06,16,10,48,16.80
2014,06,16,10,49,16.90
2014,06,16,10,50,16.90
2014,06,16,10,51,16.90
2014,06,16,10,52,16.90
2014,06,16,10,53,16.90
2014,06,16,10,54,16.80
2014,06,16,10,55,16.80
2014,06,16,10,56,16.70
2014,06,16,10,57,16.60
2014,06,16,10,58,16.60
2014,06,16,10,59,16.60
2014,06,16,11,00,16.60
2014,06,16,11,01,16.70
2014,06,16,11,02,16.70
2014,06,16,11,03,16.70
2014,06,16,11,04,16.70
2014,06,16,11,05,16.80
2014,06,16,11,06,16.90
2014,06,16,11,07,17.00
2014,06,16,11,08,17.00
2014,06,16,11,09,17.10
2014,06,16,11,10,17.20
2014,06,16,11,11,17.30
2014,06,16,11,12,17.30
2014,06,16,11,13,17.30
2014,06,16,11,14,17.30
2014,06,16,11,15,17.30
2014,06,16,11,16,17.40
2014,06,16,11,17,17.40
2014,06,16,11,18,17.40
2014,06,16,11,19,17.30
2014,06,16,11,20,17.30
2014,06,16,11,21,17.30
2014,06,16,11,22,17.30
2014,06,16,11,23,17.20
2014,06,16,11,24,17.20
2014,06,16,11,25,17.20
2014,06,16,11,26,17.20
2014,06,16,11,27,17.30
2014,06,16,11,28,17.30
2014,06,16,11,29,17.30
2014,06,16,11,30,17.30
2014,06,16,11,31,17.20
2014,06,16,11,32,17.20
2014,06,16,11,33,17.10
2014,06,16,11,34,17.10
2014,06,16,11,35,17.00
2014,06,16,11,36,17.00
2014,06,16,11,37,17.00
2014,06,16,11,38,17.00
2014,06,16,11,39,17.00
2014,06,16,11,40,17.10
2014,06,16,11,41,17.20
2014,06,16,11,42,17.30
2014,06,16,11,43,17.40
2014,06,16,11,44,17.40
2014,06,16,11,45,17.40
2014,06,16,11,46,17.40
2014,06,16,11,47,17.40
2014,06,16,11,48,17.40
2014,06,16,11,49,17.40
2014,06,16,11,50,17.40
2014,06,16,11,51,17.40
2014,06,16,11,52,17.40
2014,06,16,11,53,17.40
2014,06,16,11,54,17.50
2014,06,16,11,55,17.60
2014,06,16,11,56,17.60
2014,06,16,11,57,17.70
2014,06,16,11,58,17.70
2014,06,16,11,59,17.70
2014,06,16,12,00,17.80
2014,06,16,12,01,17.80
2014,06,16,12,02,17.80
2014,06,16,12,03,17.80
2014,06,16,12,04,17.80
2014,06,16,12,05,17.80
2014,06,16,12,06,17.80
2014,06,16,12,07,17.80
2014,06,16,12,08,17.80
2014,06,16,12,09,17.80
2014,06,16,12,10,17.90
2014,06,16,12,11,18.00
2014,06,16,12,12,18.00
2014,06,16,12,13,18.10
2014,06,16,12,14,18.10
2014,06,16,12,15,18.10
2014,06,16,12,16,18.10
2014,06,16,12,17,18.20
2014,06,16,12,18,18.10
2014,06,16,12,19,18.00
2014,06,16,12,20,17.90
2014,06,16,12,21,17.90
2014,06,16,12,22,17.90
2014,06,16,12,23,17.90
2014,06,16,12,24,18.00
2014,06,16,12,25,18.00
2014,06,16,12,26,18.10
2014,06,16,12,27,18.20
2014,06,16,12,28,18.20
2014,06,16,12,29,18.20
2014,06,16,12,30,18.10
2014,06,16,12,31,18.10
2014,06,16,12,32,18.10
2014,06,16,12,33,18.10
2014,06,16,12,34,18.10
2014,06,16,12,35,18.00
2014,06,16,12,36,18.00
2014,06,16,12,37,18.00
2014,06,16,12,38,18.00
2014,06,16,12,39,18.00
2014,06,16,12,40,18.10
2014,06,16,12,41,18.10
2014,06,16,12,42,18.20
2014,06,16,12,43,18.20
2014,06,16,12,44,18.20
2014,06,16,12,45,18.20
2014,06,16,12,46,18.20
2014,06,16,12,47,18.20
2014,06,16,12,48,18.20
2014,06,16,12,49,18.20
2014,06,16,12,50,18.10
2014,06,16,12,51,18.10
2014,06,16,12,52,18.10
2014,06,16,12,53,18.00
2014,06,16,12,54,17.90
2014,06,16,12,55,17.90
2014,06,16,12,56,17.90
2014,06,16,12,57,18.00
2014,06,16,12,58,18.10
2014,06,16,12,59,18.20
2014,06,16,13,00,18.40
2014,06,16,13,01,18.60
2014,06,16,13,02,18.70
2014,06,16,13,03,18.80
2014,06,16,13,04,18.80
2014,06,16,13,05,18.80
2014,06,16,13,06,18.70
2014,06,16,13,07,18.60
2014,06,16,13,08,18.60
2014,06,16,13,09,18.60
2014,06,16,13,10,18.70
2014,06,16,13,11,18.70
2014,06,16,13,12,18.80
2014,06,16,13,13,18.80
2014,06,16,13,14,18.80
2014,06,16,13,15,18.80
2014,06,16,13,16,18.80
2014,06,16,13,17,18.70
2014,06,16,13,18,18.70
2014,06,16,13,19,18.70
2014,06,16,13,20,18.70
2014,06,16,13,21,18.70
2014,06,16,13,22,18.70
2014,06,16,13,23,18.80
2014,06,16,13,24,18.90
2014,06,16,13,25,19.00
2014,06,16,13,26,19.10
2014,06,16,13,27,19.20
2014,06,16,13,28,19.30
2014,06,16,13,29,19.40
2014,06,16,13,30,19.40
2014,06,16,13,31,19.40
2014,06,16,13,32,19.40
2014,06,16,13,33,19.30
2014,06,16,13,34,19.30
2014,06,16,13,35,19.30
2014,06,16,13,36,19.30
2014,06,16,13,37,19.20
2014,06,16,13,38,19.20
2014,06,16,13,39,19.20
2014,06,16,13,40,19.10
2014,06,16,13,41,19.10
2014,06,16,13,42,19.20
2014,06,16,13,43,19.30
2014,06,16,13,44,19.40
2014,06,16,13,45,19.50
2014,06,16,13,46,19.60
2014,06,16,13,47,19.60
2014,06,16,13,48,19.50
2014,06,16,13,49,19.50
2014,06,16,13,50,19.40
2014,06,16,13,51,19.50
2014,06,16,13,52,19.50
2014,06,16,13,53,19.40
2014,06,16,13,54,19.50
2014,06,16,13,55,19.50
2014,06,16,13,56,19.50
2014,06,16,13,57,19.40
2014,06,16,13,58,19.30
2014,06,16,13,59,19.10
2014,06,16,14,00,19.00
2014,06,16,14,01,19.00
2014,06,16,14,02,19.10
2014,06,16,14,03,19.10
2014,06,16,14,04,19.10
2014,06,16,14,05,19.20
2014,06,16,14,06,19.20
2014,06,16,14,07,19.30
2014,06,16,14,08,19.30
2014,06,16,14,09,19.40
2014,06,16,14,10,19.40
2014,06,16,14,11,19.50
2014,06,16,14,12,19.60
2014,06,16,14,13,19.70
2014,06,16,14,14,19.80
2014,06,16,14,15,19.80
2014,06,16,14,16,19.90
2014,06,16,14,17,19.90
2014,06,16,14,18,20.00
2014,06,16,14,19,20.10
2014,06,16,14,20,20.20
2014,06,16,14,21,20.10
2014,06,16,14,22,20.10
2014,06,16,14,23,20.00
2014,06,16,14,24,19.90
2014,06,16,14,25,19.80
2014,06,16,14,26,19.70
2014,06,16,14,27,19.80
2014,06,16,14,28,19.80
2014,06,16,14,29,19.90
2014,06,16,14,30,20.00
2014,06,16,14,31,20.10
2014,06,16,14,32,20.10
2014,06,16,14,33,20.20
2014,06,16,14,34,20.10
2014,06,16,14,35,20.10
2014,06,16,14,36,20.10
2014,06,16,14,37,20.20
2014,06,16,14,38,20.20
2014,06,16,14,39,20.30
2014,06,16,14,40,20.30
2014,06,16,14,41,20.50
2014,06,16,14,42,20.40
2014,06,16,14,43,20.40
2014,06,16,14,44,20.30
2014,06,16,14,45,20.30
2014,06,16,14,46,20.30
2014,06,16,14,47,20.30
2014,06,16,14,48,20.40
2014,06,16,14,49,20.50
2014,06,16,14,50,20.60
2014,06,16,14,51,20.70
2014,06,16,14,52,20.80
2014,06,16,14,53,20.80
2014,06,16,14,54,20.80
2014,06,16,14,55,20.70
2014,06,16,14,56,20.70
2014,06,16,14,57,20.70
2014,06,16,14,58,20.70
2014,06,16,14,59,20.70
2014,06,16,15,00,20.80
2014,06,16,15,01,20.80
2014,06,16,15,02,20.80
2014,06,16,15,03,20.70
2014,06,16,15,04,20.60
2014,06,16,15,05,20.60
2014,06,16,15,06,20.50
2014,06,16,15,07,20.50
2014,06,16,15,08,20.60
2014,06,16,15,09,20.60
2014,06,16,15,10,20.70
2014,06,16,15,11,20.70
2014,06,16,15,12,20.70
2014,06,16,15,13,20.80
2014,06,16,15,14,20.80
2014,06,16,15,15,20.90
2014,06,16,15,16,20.80
2014,06,16,15,17,20.70
2014,06,16,15,18,20.70
2014,06,16,15,19,20.80
2014,06,16,15,20,20.80
2014,06,16,15,21,20.90
2014,06,16,15,22,21.00
2014,06,16,15,23,21.10
2014,06,16,15,24,21.10
2014,06,16,15,25,21.10
2014,06,16,15,26,21.20
2014,06,16,15,27,21.20
2014,06,16,15,28,21.20
2014,06,16,15,29,21.20
2014,06,16,15,30,21.20
2014,06,16,15,31,21.20
2014,06,16,15,32,21.10
2014,06,16,15,33,21.10
2014,06,16,15,34,21.10
2014,06,16,15,35,21.00
2014,06,16,15,36,20.90
2014,06,16,15,37,20.90
2014,06,16,15,38,20.90
2014,06,16,15,39,21.00
2014,06,16,15,40,21.10
2014,06,16,15,41,21.10
2014,06,16,15,42,21.10
2014,06,16,15,43,21.10
2014,06,16,15,44,21.10
2014,06,16,15,45,21.10
2014,06,16,15,46,21.00
2014,06,16,15,47,21.00
2014,06,16,15,48,20.90
2014,06,16,15,49,20.90
2014,06,16,15,50,20.90
2014,06,16,15,51,21.00
2014,06,16,15,52,21.10
2014,06,16,15,53,21.20
2014,06,16,15,54,21.30
2014,06,16,15,55,21.30
2014,06,16,15,56,21.30
2014,06,16,15,57,21.40
2014,06,16,15,58,21.40
2014,06,16,15,59,21.50
2014,06,16,16,00,21.60
2014,06,16,16,01,21.70
2014,06,16,16,02,21.80
2014,06,16,16,03,21.90
2014,06,16,16,04,21.90
2014,06,16,16,05,21.90
2014,06,16,16,06,21.90
2014,06,16,16,07,21.80
2014,06,16,16,08,21.80
2014,06,16,16,09,21.80
2014,06,16,16,10,21.80
2014,06,16,16,11,21.70
2014,06,16,16,12,21.70
2014,06,16,16,13,21.60
2014,06,16,16,14,21.60
2014,06,16,16,15,21.60
2014,06,16,16,16,21.50
2014,06,16,16,17,21.50
2014,06,16,16,18,21.50
2014,06,16,16,19,21.60
2014,06,16,16,20,21.80
2014,06,16,16,21,21.90
2014,06,16,16,22,21.90
2014,06,16,16,23,21.90
2014,06,16,16,24,21.90
2014,06,16,16,25,21.80
2014,06,16,16,26,21.60
2014,06,16,16,27,21.50
2014,06,16,16,28,21.40
2014,06,16,16,29,21.50
2014,06,16,16,30,21.50
2014,06,16,16,31,21.60
2014,06,16,16,32,21.70
2014,06,16,16,33,21.70
2014,06,16,16,34,21.80
2014,06,16,16,35,21.80
2014,06,16,16,36,21.90
2014,06,16,16,37,21.90
2014,06,16,16,38,21.90
2014,06,16,16,39,21.90
2014,06,16,16,40,21.90
2014,06,16,16,41,22.00
2014,06,16,16,42,22.10
2014,06,16,16,43,22.20
2014,06,16,16,44,22.20
2014,06,16,16,45,22.10
2014,06,16,16,46,22.00
2014,06,16,16,47,21.90
2014,06,16,16,48,21.80
2014,06,16,16,49,21.70
2014,06,16,16,50,21.70
2014,06,16,16,51,21.50
2014,06,16,16,52,21.40
2014,06,16,16,53,21.30
2014,06,16,16,54,21.20
2014,06,16,16,55,21.20
2014,06,16,16,56,21.20
2014,06,16,16,57,21.20
2014,06,16,16,58,21.20
2014,06,16,16,59,21.20
2014,06,16,17,00,21.20
2014,06,16,17,01,21.20
2014,06,16,17,02,21.20
2014,06,16,17,03,21.20
2014,06,16,17,04,21.20
2014,06,16,17,05,21.20
2014,06,16,17,06,21.20
2014,06,16,17,07,21.20
2014,06,16,17,08,21.20
2014,06,16,17,09,21.20
2014,06,16,17,10,21.20
2014,06,16,17,11,21.20
2014,06,16,17,12,21.20
2014,06,16,17,13,21.30
2014,06,16,17,14,21.30
2014,06,16,17,15,21.20
2014,06,16,17,16,21.30
2014,06,16,17,17,21.30
2014,06,16,17,18,21.40
2014,06,16,17,19,21.50
2014,06,16,17,20,21.50
2014,06,16,17,21,21.40